Alliance, NE

8:59 PM MDT on March 22, 2017 (GMT -0600)
Alliance Municipal

Weather History for KAIA - April, 2013

Change the Weather History Date:

Monday, April 29, 2013

  Actual Average Record
Temperature  
Mean Temperature 57 °F 49 °F  
Max Temperature 81 °F 64 °F 84 °F (1987)
Min Temperature 32 °F 33 °F 13 °F (1956)
Degree Days  
Heating Degree Days 8 16  
Month to date heating degree days 781 587  
Since 1 July heating degree days 6813 6873  
Cooling Degree Days 0 0  
Month to date cooling degree days 0 0  
Year to date cooling degree days 0 0  
Growing Degree Days 6 (Base 50)    
Moisture  
Dew Point 30 °F    
Average Humidity 53    
Maximum Humidity 96    
Minimum Humidity 10    
Precipitation  
Precipitation 0.00 in 0.06 in 1.42 in (1953)
Month to date precipitation 1.96 1.40  
Year to date precipitation 2.53 2.81  
Sea Level Pressure  
Sea Level Pressure 29.62 in    
Wind  
Wind Speed 13 mph (WSW)    
Max Wind Speed 31 mph    
Max Gust Speed 39 mph    
Visibility 10 miles    
Events      
T = Trace of Precipitation, MM = Missing Value Source: NWS Daily Summary

Daily Weather History Graph

Daily Weather History Graph

Search for Another Location

Airport or City:

Trip Planner

Search our weather history database for the weather conditions in past years. The results will help you decide how hot, cold, wet, or windy it might be!

Date:

Astronomy

Apr. 29, 2013 Rise Set
Actual Time 5:49 AM MDT 7:48 PM MDT
Civil Twilight 5:19 AM MDT 8:18 PM MDT
Nautical Twilight 4:42 AM MDT 8:55 PM MDT
Astronomical Twilight 4:01 AM MDT 9:36 PM MDT
Moon No Moon Rise 9:10 AM MDT (4/29)
Length of Visible Light 14h 59m
Length of Day
13h 58m
Waning Gibbous, 79% of the Moon is Illuminated
Apr 29
Waning Gibbous
May 2
Last Quarter
May 9
New
May 17
First Quarter
May 24
Full

Hourly Weather History & Observations

Time (MDT) Temp. Windchill Dew Point Humidity Pressure Visibility Wind Dir Wind Speed Gust Speed Precip Events Conditions
12:53 AM 42.1 °F - 35.1 °F 76% 29.86 in 10.0 mi Calm Calm - N/A   Clear
1:53 AM 42.1 °F 38.4 °F 35.1 °F 76% 29.85 in 10.0 mi NNE 5.8 mph - N/A   Clear
2:53 AM 34.0 °F - 30.0 °F 85% 29.85 in 10.0 mi Calm Calm - N/A   Clear
3:53 AM 32.0 °F - 30.0 °F 92% 29.82 in 10.0 mi Calm Calm - N/A   Clear
4:53 AM 34.0 °F 31.0 °F 32.0 °F 92% 29.81 in 10.0 mi Variable 3.5 mph - N/A   Clear
5:53 AM 36.0 °F - 32.0 °F 86% 29.77 in 10.0 mi Calm Calm - N/A   Clear
6:53 AM 39.9 °F 35.8 °F 37.0 °F 89% 29.75 in 10.0 mi SSE 5.8 mph - N/A   Clear
7:53 AM 50.0 °F - 37.0 °F 61% 29.74 in 10.0 mi South 12.7 mph - N/A   Clear
8:53 AM 59.0 °F - 35.1 °F 41% 29.71 in 10.0 mi South 17.3 mph - N/A   Clear
9:53 AM 64.0 °F - 37.0 °F 37% 29.68 in 10.0 mi SW 19.6 mph 26.5 mph N/A   Clear
10:53 AM 69.1 °F - 34.0 °F 27% 29.66 in 10.0 mi WSW 21.9 mph 28.8 mph N/A   Clear
11:53 AM 71.6 °F - 37.4 °F 29% 29.71 in 10.0 mi WSW 24.2 mph 31.1 mph N/A   Clear
12:53 PM 73.9 °F - 32.0 °F 21% 29.58 in 10.0 mi West 16.1 mph 25.3 mph N/A   Partly Cloudy
1:53 PM 75.9 °F - 21.0 °F 13% 29.53 in 10.0 mi West 19.6 mph - N/A   Clear
2:53 PM 80.1 °F - 19.0 °F 10% 29.51 in 10.0 mi West 26.5 mph 36.8 mph N/A   Clear
3:53 PM 80.1 °F - 19.0 °F 10% 29.48 in 10.0 mi WSW 26.5 mph 39.1 mph N/A   Clear
4:53 PM 80.1 °F - 21.9 °F 12% 29.44 in 10.0 mi WSW 16.1 mph - N/A   Clear
5:53 PM 77.0 °F - 21.0 °F 12% 29.44 in 10.0 mi West 24.2 mph 32.2 mph N/A   Clear
6:53 PM 70.0 °F - 26.1 °F 19% 29.45 in 10.0 mi West 8.1 mph - N/A   Clear
7:53 PM 62.1 °F - 28.0 °F 28% 29.44 in 10.0 mi SW 11.5 mph - N/A   Clear
8:53 PM 60.1 °F - 28.9 °F 31% 29.43 in 10.0 mi SW 11.5 mph - N/A   Clear
9:53 PM 59.0 °F - 30.9 °F 35% 29.43 in 10.0 mi West 9.2 mph - N/A   Clear
10:53 PM 57.9 °F - 32.0 °F 37% 29.42 in 10.0 mi West 6.9 mph - N/A   Clear
11:53 PM 60.1 °F - 30.0 °F 32% 29.43 in 10.0 mi West 4.6 mph - N/A   Mostly Cloudy